Date String (YYYY-MM-DD hh:mm:ss) UTC,Instrument flags,Ambient pressure (hPa),Sample flow (lpm),Bypass flow (lpm),Sample temperature (°C),Ambient temperature (°C),ASC tube jacket temperature (°C),LED temperature (°C),Box temperature (°C),Sample RH (%),Span deviation,Mass concentration (μg/m³),Mass concentration (μg/m³),Mass concentration (μg/m³)
DateTimeUTC,F1_M11,P_M11,Q1_M11,Q2_M11,T1_M11,T2_M11,T3_M11,T4_M11,T5_M11,U1_M11,ZSPAN_M11,X0_M11,X2_M11,X1_M11
2022-03-04 20:00:00,,0816.5,5.00,0.00,26.9,26.2,00.0,35.8,28.7,08.5,0000.0,0007.83,0003.23,0002.46
2022-03-04 20:01:00,,0816.3,4.99,0.00,26.9,26.2,00.0,35.8,28.8,08.3,0000.0,0007.84,0003.22,0002.46
2022-03-04 20:02:00,,0816.0,4.99,0.00,26.9,26.2,00.0,35.8,28.8,08.6,0000.0,0007.84,0003.21,0002.46
2022-03-04 20:03:00,,0816.0,5.01,0.00,26.9,26.3,00.0,35.8,28.8,08.8,0000.0,0007.94,0003.21,0002.46
2022-03-04 20:04:00,,0816.0,4.99,0.00,27.0,26.3,00.0,35.9,28.8,08.7,0000.0,0007.83,0003.20,0002.45
2022-03-04 20:05:00,,0816.0,4.99,0.00,27.0,26.3,00.0,35.9,28.8,08.4,0000.0,0007.79,0003.18,0002.44
2022-03-04 20:06:00,,0816.0,5.01,0.00,27.0,26.3,00.0,35.9,28.8,08.5,0000.0,0008.05,0003.16,0002.41
2022-03-04 20:07:00,,0816.0,5.00,0.00,27.0,26.3,00.0,35.9,28.8,08.4,0000.0,0008.26,0003.19,0002.40
2022-03-04 20:08:00,,0816.0,5.00,0.00,27.0,26.3,00.0,35.9,28.8,08.4,0000.0,0008.18,0003.19,0002.40
2022-03-04 20:09:00,,0816.0,4.99,0.00,27.0,26.3,00.0,35.9,28.8,08.4,0000.0,0007.82,0003.18,0002.40
2022-03-04 20:10:00,,0816.0,5.00,0.00,27.0,26.3,00.0,35.9,28.8,08.4,0000.0,0007.75,0003.18,0002.40
2022-03-04 20:11:00,,0815.9,5.00,0.00,27.0,26.3,00.0,35.9,28.8,08.5,0000.0,0006.88,0003.15,0002.39
2022-03-04 20:12:00,,0815.9,5.01,0.00,27.0,26.3,00.0,35.9,28.8,08.5,0000.0,0007.59,0003.13,0002.38
2022-03-04 20:13:00,,0815.9,5.00,0.00,27.0,26.3,00.0,35.9,28.8,08.4,0000.0,0008.50,0003.13,0002.38
2022-03-04 20:14:00,,0815.9,4.99,0.00,27.0,26.3,00.0,36.0,28.9,08.5,0000.0,0008.47,0003.14,0002.38
2022-03-04 20:15:00,,0815.9,5.00,0.00,27.1,26.3,00.0,36.0,28.9,08.5,0000.0,0008.72,0003.14,0002.38
2022-03-04 20:16:00,,0815.9,5.01,0.00,27.1,26.4,00.0,36.0,28.9,08.3,0000.0,0009.22,0003.15,0002.39
2022-03-04 20:17:00,,0816.0,5.00,0.00,27.1,26.4,00.0,36.0,28.9,08.3,0000.0,0009.07,0003.16,0002.39
2022-03-04 20:18:00,,0815.9,4.99,0.00,27.1,26.4,00.0,36.0,28.8,08.3,0000.0,0009.06,0003.19,0002.39
2022-03-04 20:19:00,,0815.9,4.99,0.00,27.1,26.4,00.0,36.0,28.9,08.5,0000.0,0009.00,0003.19,0002.40
2022-03-04 20:20:00,,0815.9,5.01,0.00,27.1,26.4,00.0,36.0,28.9,08.6,0000.0,0008.87,0003.21,0002.41
2022-03-04 20:21:00,,0816.0,5.03,0.00,27.1,26.4,00.0,36.0,28.9,08.6,0000.0,0008.95,0003.19,0002.42
2022-03-04 20:22:00,,0815.9,5.00,0.00,27.1,26.3,00.0,36.0,28.9,08.6,0000.0,0008.98,0003.21,0002.43
2022-03-04 20:23:00,,0815.8,5.00,0.00,27.1,26.3,00.0,36.0,28.8,08.7,0000.0,0008.72,0003.24,0002.45
2022-03-04 20:24:00,,0815.8,4.99,0.00,27.1,26.3,00.0,36.0,28.8,08.7,0000.0,0007.93,0003.27,0002.47
2022-03-04 20:25:00,,0815.8,5.00,0.00,27.0,26.3,00.0,36.0,28.8,08.3,0000.0,0008.17,0003.24,0002.48
2022-03-04 20:26:00,,0815.7,5.02,0.00,27.0,26.3,00.0,36.0,28.8,08.3,0000.0,0008.52,0003.24,0002.49
2022-03-04 20:27:00,,0815.7,4.99,0.00,27.0,26.3,00.0,36.0,28.8,08.3,0000.0,0008.17,0003.25,0002.50
2022-03-04 20:28:00,,0815.7,4.99,0.00,27.0,26.3,00.0,36.0,28.8,08.5,0000.0,0008.65,0003.23,0002.51
2022-03-04 20:29:00,,0815.7,5.01,0.00,27.0,26.2,00.0,36.0,28.8,08.4,0000.0,0009.53,0003.21,0002.55
2022-03-04 20:30:00,,0815.7,5.01,0.00,27.0,26.2,00.0,36.0,28.8,08.6,0000.0,0009.63,0003.23,0002.55
2022-03-04 20:31:00,,0815.7,5.00,0.00,27.0,26.2,00.0,36.0,28.8,08.5,0000.0,0010.02,0003.24,0002.57
2022-03-04 20:32:00,,0815.6,5.00,0.00,27.0,26.2,00.0,36.0,28.8,08.6,0000.0,0009.83,0003.24,0002.57
2022-03-04 20:33:00,,0815.8,5.02,0.00,27.0,26.2,00.0,36.0,28.7,08.8,0000.0,0009.86,0003.24,0002.59
2022-03-04 20:34:00,,0815.6,4.99,0.00,27.0,26.2,00.0,36.0,28.7,08.6,0000.0,0009.59,0003.22,0002.60
2022-03-04 20:35:00,,0815.6,4.99,0.00,27.0,26.2,00.0,36.0,28.7,08.5,0000.0,0010.07,0003.25,0002.59
2022-03-04 20:36:00,,0815.5,5.01,0.00,27.0,26.2,00.0,36.0,28.7,08.7,0000.0,0010.54,0003.28,0002.59
2022-03-04 20:37:00,,0815.9,4.99,0.00,27.0,26.2,00.0,36.0,28.8,08.8,0000.0,0010.22,0003.29,0002.59
2022-03-04 20:38:00,,0816.0,5.01,0.00,27.0,26.3,00.0,36.0,28.8,08.6,0000.0,0010.17,0003.29,0002.60
2022-03-04 20:39:00,,0816.0,5.00,0.00,27.0,26.3,00.0,36.0,28.8,08.7,0000.0,0009.35,0003.27,0002.60
2022-03-04 20:40:00,,0816.0,5.00,0.00,27.1,26.4,00.0,36.0,28.8,08.6,0000.0,0008.66,0003.27,0002.60
2022-03-04 20:41:00,,0816.0,5.01,0.00,27.1,26.4,00.0,36.0,28.9,08.6,0000.0,0008.68,0003.24,0002.60
2022-03-04 20:42:00,,0815.8,4.99,0.00,27.1,26.4,00.0,36.0,28.9,08.7,0000.0,0008.54,0003.22,0002.59
2022-03-04 20:43:00,,0815.8,4.99,0.00,27.1,26.4,00.0,36.1,28.9,08.6,0000.0,0008.83,0003.29,0002.61
2022-03-04 20:44:00,,0815.9,5.00,0.00,27.1,26.4,00.0,36.1,28.9,08.4,0000.0,0009.65,0003.34,0002.61
2022-03-04 20:45:00,,0816.0,5.01,0.00,27.1,26.4,00.0,36.1,28.9,08.2,0000.0,0009.66,0003.35,0002.62
2022-03-04 20:46:00,,0816.0,4.99,0.00,27.1,26.4,00.0,36.1,28.9,08.2,0000.0,0009.12,0003.39,0002.65
2022-03-04 20:47:00,,0816.1,5.00,0.00,27.1,26.4,00.0,36.1,28.9,08.0,0000.0,0008.78,0003.42,0002.67
2022-03-04 20:48:00,,0816.1,5.00,0.00,27.1,26.5,00.0,36.1,28.9,08.1,0000.0,0008.98,0003.44,0002.69
2022-03-04 20:49:00,,0816.1,5.01,0.00,27.2,26.5,00.0,36.1,28.9,08.4,0000.0,0009.10,0003.50,0002.70
2022-03-04 20:50:00,,0816.0,5.01,0.00,27.2,26.4,00.0,36.1,29.0,08.4,0000.0,0009.28,0003.57,0002.72
2022-03-04 20:51:00,,0816.0,4.99,0.00,27.1,26.5,00.0,36.1,29.0,08.3,0000.0,0009.03,0003.58,0002.73
2022-03-04 20:52:00,,0816.0,5.00,0.00,27.1,26.5,00.0,36.1,28.9,08.7,0000.0,0009.71,0003.61,0002.73
2022-03-04 20:53:00,,0815.9,5.01,0.00,27.2,26.5,00.0,36.1,28.9,08.7,0000.0,0009.66,0003.64,0002.74
2022-03-04 20:54:00,,0816.0,4.99,0.00,27.2,26.5,00.0,36.1,29.0,08.3,0000.0,0009.55,0003.63,0002.74
2022-03-04 20:55:00,,0815.7,4.99,0.00,27.2,26.5,00.0,36.1,29.0,08.5,0000.0,0008.65,0003.58,0002.74
2022-03-04 20:56:00,,0815.4,4.99,0.00,27.2,26.5,00.0,36.1,28.9,08.4,0000.0,0008.88,0003.60,0002.76
2022-03-04 20:57:00,,0815.4,5.01,0.00,27.2,26.5,00.0,36.1,29.0,08.1,0000.0,0009.62,0003.59,0002.76
2022-03-04 20:58:00,,0815.3,5.01,0.00,27.2,26.5,00.0,36.1,29.0,08.2,0000.0,0009.40,0003.56,0002.76
2022-03-04 20:59:00,,0815.3,5.00,0.00,27.2,26.5,00.0,36.2,29.0,08.3,0000.0,0008.78,0003.53,0002.75
